Home   Weather   Regina   Past weeks
Flag for Canada

Past Weather in Regina, Saskatchewan, Canada — Yesterday and Last 2 Weeks

Now
52 °F

Passing clouds.


Feels Like: 47 °F
Forecast: 64 / 42 °F
Wind: 14 mph from Southeast

Location: Regina Weather Station

Current Time: May 21, 2019 at 12:47:24 am

Latest Report: May 21, 2019 at 12:00 am


Visibility: 15 mi

Pressure: 30.07 "Hg (28.06 "Hg at 577m altitude)

Humidity: 41%

Dew Point: 28 °F

Location of ReginaLocation

Past Weather in Regina — Graph

°F

Regina Temperature Yesterday

Maximum temperature yesterday: 63 °F (at 2:00 pm)
Minimum temperature yesterday: 41 °F (at 4:00 am)
Average temperature yesterday: 53 °F

High & Low Weather Summary for the Past Weeks

 TemperatureHumidityPressure
High73 °F (May 13, 2:00 pm)100% (May 10, 9:27 pm)30.37 "Hg (May 10, 9:27 pm)
Low16 °F (May 6, 4:00 am)16% (May 8, 5:00 pm)29.59 "Hg (May 15, 3:00 pm)
Average49 °F50%30.04 "Hg
* Reported May 5 11:00 pm — May 20 11:00 pm, Regina. Weather by CustomWeather, © 2019

Note: Actual official high and low records may vary slightly from our data, if they occured in-between our weather recording intervals... More about our weather records

Advertising

Regina Weather History for the Previous 24 Hours

Scroll right to see more
 ConditionsComfort  
Time TempWeatherWind HumidityBarometerVisibility
11:00 pm
Mon, May 20
54 °FPassing clouds.14 mph38%30.08 "Hg15 mi
10:00 pm55 °FPartly cloudy.14 mph36%30.08 "Hg15 mi
9:00 pm55 °FPassing clouds.12 mph33%30.08 "Hg15 mi
8:00 pm59 °FPartly sunny.15 mph31%30.09 "Hg15 mi
7:00 pm63 °FPassing clouds.16 mph25%30.10 "Hg15 mi
6:00 pm63 °FScattered clouds.18 mph27%30.11 "Hg15 mi
5:00 pm63 °FPartly sunny.23 mph27%30.12 "Hg15 mi
4:00 pm63 °FPartly sunny.15 mph27%30.11 "Hg15 mi
3:00 pm63 °FPartly sunny.15 mph27%30.12 "Hg15 mi
2:00 pm63 °FPartly sunny.16 mph27%30.12 "Hg15 mi
1:00 pm61 °FPartly sunny.14 mph31%30.14 "Hg15 mi
12:00 pm59 °FScattered clouds.10 mph34%30.16 "Hg15 mi
11:00 am57 °FScattered clouds.10 mph36%30.18 "Hg15 mi
10:00 am57 °FScattered clouds.14 mph36%30.20 "Hg15 mi
9:00 am52 °FPassing clouds.12 mph50%30.22 "Hg15 mi
8:00 am46 °FPartly sunny.10 mph62%30.22 "Hg15 mi
7:00 am43 °FPartly sunny.12 mph66%30.22 "Hg15 mi
6:00 am41 °FPassing clouds.12 mph70%30.21 "Hg15 mi
5:00 am41 °FPassing clouds.13 mph66%30.19 "Hg15 mi
4:00 am41 °FPassing clouds.12 mph66%30.19 "Hg15 mi
3:00 am43 °FPassing clouds.13 mph61%30.18 "Hg15 mi
2:00 am46 °FPassing clouds.16 mph53%30.18 "Hg15 mi
1:00 am46 °FPassing clouds.14 mph53%30.19 "Hg15 mi
12:00 am48 °FPassing clouds.13 mph50%30.19 "Hg15 mi
Weather by CustomWeather, © 2019

See weather overview